[ hide orbit diagram ]
For accurate long-term ephemerides, please instead use our Horizons system.This orbit viewer was implemented using two-body methods, and hence should not be used for determining accurate long-term trajectories (over several years or decades) or planetary encounter circumstances.
Orbital Elements at Epoch 2459000.5 (2020-May-31.0) TDB
Reference: JPL 32 (heliocentric ecliptic J2000)
Element | Value | Uncertainty (1-sigma) | Units |
e | .0282153348231305 | 2.6987e-08 | |
a | 2.419072274735564 | 7.9535e-09 | au |
q | 2.350817340542548 | 6.4699e-08 | au |
i | 3.141116916372174 | 4.0027e-06 | deg |
node | 196.6098678533852 | 5.3036e-05 | deg |
peri | 106.6059725420863 | 9.1549e-05 | deg |
M | 130.350799896692 | 7.3705e-05 | deg |
tp | 2458502.897111554107 (2019-Jan-19.39711155) | 0.0002817 | TDB |
period | 1374.26881908277 3.76 | 6.7775e-06 1.856e-08 | d yr |
n | .2619574824089185 | 1.2919e-09 | deg/d |
Q | 2.48732720892858 | 8.1779e-09 | au |
|
| | Orbit Determination Parameters
Additional Information
|
[ show covariance matrix ]
Physical Parameter Table
Parameter |
Symbol |
Value |
Units |
Sigma |
Reference |
Notes |
absolute magnitude |
H |
14.4 |
|
n/a |
MPO452977 |
|
diameter |
diameter |
4.008 |
km |
0.082 |
urn:nasa:pds:neowise_diameters_albedos::2.0[mainbelt] (http://adsabs.harvard.edu/abs/2011ApJ...741...68M) |
|
geometric albedo |
albedo |
0.159 |
|
0.044 |
urn:nasa:pds:neowise_diameters_albedos::2.0[mainbelt] (http://adsabs.harvard.edu/abs/2011ApJ...741...68M) |
|
|
59607 (1999 JV65) Discovered 1999-May-12 by LINEAR at Socorro |
Reference: 20030614/Numbers.arc | Last Updated: 2004-04-19 |
|
[ show close-approach data ]
|